This is the latest recevied weather packets stored in our database for station/object N2PUI. If no packets are shown the sender has not sent any weather packets the latest 10 day(s).
| Time | Temp. | Humidity | Pressure | Rain* | Wind** | Luminosity | Snow |
|---|---|---|---|---|---|---|---|
| 1777406514 | 13.33° C | 55% | 1017.6 hPa | 0 mm | - | 153 W/m² | - |
| 1777406210 | 13.89° C | 54% | 1017.6 hPa | 0 mm | - | 193 W/m² | - |
| 1777405002 | 13.89° C | 52% | 1017.9 hPa | 0 mm | - | 104 W/m² | - |
| 1777404697 | 13.89° C | 53% | 1017.9 hPa | 0 mm | - | 186 W/m² | - |
| 1777404394 | 13.89° C | 51% | 1017.9 hPa | 0 mm | - | 202 W/m² | - |
| 1777404091 | 13.89° C | 52% | 1017.6 hPa | 0 mm | - | 209 W/m² | - |
| 1777403786 | 13.89° C | 52% | 1017.7 hPa | 0 mm | - | 214 W/m² | - |
| 1777403485 | 13.89° C | 51% | 1018.2 hPa | 0 mm | - | 190 W/m² | - |
| 1777402575 | 13.89° C | 50% | 1018 hPa | 0 mm | - | 188 W/m² | - |
| 1777402270 | 13.89° C | 50% | 1018.2 hPa | 0 mm | - | 207 W/m² | - |
| 1777400443 | 13.89° C | 49% | 1018.4 hPa | 0 mm | - | 107 W/m² | - |
| 1777400138 | 14.44° C | 48% | 1018.2 hPa | 0 mm | - | 119 W/m² | - |
| 1777399836 | 14.44° C | 48% | 1018.2 hPa | 0 mm | - | 125 W/m² | - |
| 1777398922 | 15° C | 46% | 1018.5 hPa | 0 mm | - | 140 W/m² | - |
| 1777397709 | 15° C | 44% | 1018.7 hPa | 0 mm | - | 136 W/m² | - |
| 1777397405 | 15.56° C | 43% | 1018.9 hPa | 0 mm | - | 145 W/m² | - |
| 1777397101 | 15.56° C | 42% | 1018.7 hPa | 0 mm | - | 189 W/m² | - |
| 1777395887 | 16.11° C | 38% | 1018.7 hPa | 0 mm | - | 359 W/m² | - |
| 1777394977 | 16.67° C | 39% | 1018.4 hPa | 0 mm | - | 393 W/m² | - |
| 1777394065 | 16.11° C | 43% | 1018.5 hPa | 0 mm | - | 397 W/m² | - |
| 1777393760 | 16.67° C | 43% | 1018.6 hPa | 0 mm | - | 390 W/m² | - |
| 1777393454 | 16.67° C | 42% | 1018.9 hPa | 0 mm | - | 502 W/m² | - |
| 1777392848 | 16.11° C | 40% | 1018.6 hPa | 0 mm | - | 455 W/m² | - |
| 1777392239 | 16.67° C | 43% | 1018.8 hPa | 0 mm | - | 321 W/m² | - |
| 1777391934 | 16.11° C | 42% | 1018.6 hPa | 0 mm | - | 339 W/m² | - |
* Rain latest hour (hover to see other rain measurements)
** Current wind speed in m/s (hover to see current wind gust speed)